Retour au catalogue

STARLINK-31837

ActifCommunicationsVLEO
NORAD 61514·PAYLOAD·🇺🇸 United States

Lancé Oct 15, 2024 depuis Cape Canaveral Space Force Station

Loading…

Prochains Passages (prochaines 24 heures)

TLE

FraisSource: CelesTrak SupGP

Époque: Sep 14, 2026, 21:28 UTC

1 61514C 24183F   26257.89493056 -.00015319  00000+0 -45284-3 0  2574
2 61514  53.1586 341.5865 0001152  85.8501 110.4236 15.34381931    11

Suivez STARLINK-31837 en temps réel avec AllMySat

Download on the App Store